"Pseudo-MPEC" for C0GNKP5
Created 2023 Mar 21 19:22:05 UT using Find_Orb
Click here for an explanation of pseudo-MPECs
Astrometry: C0GNKP5*HC2023 03 13%KIU
Astrometryj]e*[ehLe8gNR
redacted;s255+D'5t8XV()7s
V00 C0GNKP5 HC2023 03 13=VW[7BIc
clickaa+6n$H)m.
here'tC!fy3C'=#rj@NHU@D$],?hv
V00 C0GNKP5 HC2023 03 133Gxp:,xiOSUOgR0^/]NOev*+ubC[(1WoX/fMEKKN8
for$9v3v%=a
V00 C0GNKP5 HC2023 03 13!!GPdj1F
explanationUB;4R[;HyWGK(v=`5ntes7LN8M%V=jM3r
V00 C0GNKP5 KC2023 03 13.29278110 41 48.534+49 33 16.16 ~3D7q 21.13GVNEOCPI52 C0GNKP5 KC2023 03 13.30052110 41 58.463+49 31 31.26 ~3D7q 21.28GVNEOCPI52 C0GNKP5 KC2023 03 13.30837810 42 08.413+49 29 44.59 ~3D7q 21.54GVNEOCPI52 Station data: (I52) Steward Observatory, Mt. Lemmon Station (N32.442544 W110.788920) US/Arizona. Observers T. A. Pruyne, B. M. Africano, E. J. Christensen, G. A. Farneth, D. C. Fuls, A. R. Gibbs, A. D. Grauer, H. Gröller, J. A. Johnson, R. A. Kowalski, S. M. Larson, G. J. Leonard, D. Rankin, R. L. Seaman, F. C. Shelly, K. W. Wierzchoś. 1.0-m reflector + CCD. (V00) Kitt Peak-Bok (N31.963125 W111.600190) US/Arizona. Observers T. A. Pruyne, B. M. Africano, E. J. Christensen, G. A. Farneth, D. C. Fuls, A. R. Gibbs, A. D. Grauer, H. Gröller, J. A. Johnson, R. A. Kowalski, S. M. Larson, G. J. Leonard, D. Rankin, R. L. Seaman, F. C. Shelly, K. W. Wierzchoś. 2.25-m reflector + CCD. Orbital elements: C0GNKP5 Perihelion 2023 Jan 20.41663 +/- 5.79 TT = 9:59:56 (JD 2459964.91663) Epoch 2023 Mar 13.0 TT = JDT 2460016.5 Earth MOID: 0.0051 Ve: 0.0476 M 25.51104840 +/- 15 (J2000 ecliptic) AutoNEOCP n 0.49455953 +/- 0.24 Peri. 264.41201 +/- 4.7 a 1.58364193 +/- 0.513 Node 168.57323 +/- 0.56 e 0.6465827 +/- 0.132 Incl. 25.97910 +/- 5.0 P 1.99/727.91d H 27.07 G 0.15 U 11.8 q 0.55968637 +/- 0.0324 Q 2.60759749 +/- 1.05 From 7 observations 2023 Mar. 13 (1.9 hr); mean residual 0".35
Residuals in arcseconds: 230313 V00 .02- .16- 230313 V00 .12+ .04+ 230313 I52 .24- .12+ 230313 V00 .58+ .37- 230313 I52 .07+ .31- 230313 V00 .77- .61+ 230313 I52 .24+ .08+ Ephemerides (geocentric): Date (UTC) HH RA Dec delta r elong mag " sig PA ---- -------- ------------ ------------ ------ ------ ----- --- -------- 2023 03 21 19 11 24 34.782 +40 42 28.79 .15418 1.1158 138.2 24.8 2220 156 2023 03 21 20 11 24 37.562 +40 41 38.75 .15476 1.1162 138.2 24.8 2226 156 2023 03 21 21 11 24 40.322 +40 40 48.95 .15534 1.1167 138.2 24.8 2231 156 2023 03 21 22 11 24 43.064 +40 39 59.38 .15592 1.1172 138.2 24.8 2236 156 2023 03 21 23 11 24 45.788 +40 39 10.05 .15650 1.1176 138.2 24.8 2241 156 2023 03 22 00 11 24 48.493 +40 38 20.94 .15708 1.1181 138.1 24.8 2247 156 2023 03 22 01 11 24 51.180 +40 37 32.06 .15766 1.1186 138.1 24.8 2252 156 2023 03 22 02 11 24 53.850 +40 36 43.40 .15824 1.1190 138.1 24.8 2257 156 2023 03 22 03 11 24 56.502 +40 35 54.97 .15882 1.1195 138.1 24.8 2262 156 2023 03 22 04 11 24 59.136 +40 35 06.75 .15940 1.1200 138.1 24.9 2267 156 2023 03 22 05 11 25 01.754 +40 34 18.75 .15998 1.1204 138.1 24.9 2272 156 2023 03 22 06 11 25 04.354 +40 33 30.96 .16056 1.1209 138.1 24.9 2277 156 2023 03 22 07 11 25 06.938 +40 32 43.38 .16114 1.1214 138.1 24.9 2282 156 2023 03 22 08 11 25 09.505 +40 31 56.01 .16172 1.1218 138.1 24.9 2287 156 2023 03 22 09 11 25 12.056 +40 31 08.84 .16230 1.1223 138.1 24.9 2292 156 2023 03 22 10 11 25 14.591 +40 30 21.88 .16288 1.1227 138.1 24.9 2296 156 2023 03 22 11 11 25 17.110 +40 29 35.11 .16346 1.1232 138.1 24.9 2301 156 2023 03 22 12 11 25 19.613 +40 28 48.55 .16404 1.1237 138.0 24.9 2306 156 2023 03 22 13 11 25 22.100 +40 28 02.18 .16462 1.1241 138.0 24.9 2311 156 2023 03 22 14 11 25 24.573 +40 27 16.00 .16520 1.1246 138.0 24.9 2315 156 2023 03 22 15 11 25 27.030 +40 26 30.01 .16578 1.1251 138.0 24.9 2320 156 2023 03 22 16 11 25 29.472 +40 25 44.21 .16636 1.1255 138.0 25.0 2325 156 2023 03 22 17 11 25 31.899 +40 24 58.60 .16694 1.1260 138.0 25.0 2329 156 2023 03 22 18 11 25 34.312 +40 24 13.17 .16752 1.1265 138.0 25.0 2334 156 2023 03 22 19 11 25 36.710 +40 23 27.93 .16810 1.1269 138.0 25.0 2338 156 2023 03 22 20 11 25 39.094 +40 22 42.86 .16868 1.1274 138.0 25.0 2343 156 2023 03 22 21 11 25 41.464 +40 21 57.97 .16927 1.1278 138.0 25.0 2347 156 2023 03 22 22 11 25 43.819 +40 21 13.26 .16985 1.1283 137.9 25.0 2352 156 2023 03 22 23 11 25 46.162 +40 20 28.72 .17043 1.1288 137.9 25.0 2356 156 2023 03 23 00 11 25 48.490 +40 19 44.35 .17101 1.1292 137.9 25.0 2360 156 2023 03 23 01 11 25 50.805 +40 19 00.15 .17159 1.1297 137.9 25.0 2365 156 2023 03 23 02 11 25 53.107 +40 18 16.12 .17217 1.1302 137.9 25.0 2369 156 2023 03 23 03 11 25 55.395 +40 17 32.25 .17275 1.1306 137.9 25.0 2373 156 2023 03 23 04 11 25 57.670 +40 16 48.55 .17333 1.1311 137.9 25.1 2378 156 2023 03 23 05 11 25 59.933 +40 16 05.01 .17392 1.1315 137.9 25.1 2382 156 2023 03 23 06 11 26 02.183 +40 15 21.63 .17450 1.1320 137.9 25.1 2386 156 2023 03 23 07 11 26 04.420 +40 14 38.40 .17508 1.1325 137.9 25.1 2390 156 2023 03 23 08 11 26 06.645 +40 13 55.34 .17566 1.1329 137.8 25.1 2394 156 2023 03 23 09 11 26 08.858 +40 13 12.42 .17624 1.1334 137.8 25.1 2399 156 2023 03 23 10 11 26 11.059 +40 12 29.66 .17682 1.1339 137.8 25.1 2403 156 2023 03 23 11 11 26 13.247 +40 11 47.05 .17741 1.1343 137.8 25.1 2407 156 2023 03 23 12 11 26 15.424 +40 11 04.59 .17799 1.1348 137.8 25.1 2411 156 2023 03 23 13 11 26 17.589 +40 10 22.28 .17857 1.1352 137.8 25.1 2415 156 2023 03 23 14 11 26 19.743 +40 09 40.11 .17915 1.1357 137.8 25.1 2419 156 2023 03 23 15 11 26 21.885 +40 08 58.09 .17973 1.1362 137.8 25.1 2423 156 2023 03 23 16 11 26 24.016 +40 08 16.21 .18032 1.1366 137.8 25.1 2427 156 2023 03 23 17 11 26 26.135 +40 07 34.47 .18090 1.1371 137.7 25.2 2430 156 2023 03 23 18 11 26 28.244 +40 06 52.87 .18148 1.1376 137.7 25.2 2434 156